OBJECT C, 49317

Orbit data source: Space-Track

You're viewing an Uncataloged Satellite

Recently launched and/or uncataloged satellites may have evolving metadata. Metadata may include but not limited to: Owner, Maufacturer, Bus, Motor, and Mission.

OBJECT C, 49317 is a Chinese satellite in SSO that was launched on Thu, 14 Oct 2021 UTC via a CHANG ZHENG 2D launch vehicle from the Taiyaun Space Center, China (TSC). Unknown objects in Earth's orbit typically refer to objects detected orbiting the Earth but have not yet been identified or cataloged. These objects could be anything from previously untracked satellites, spent rocket stages, debris from satellite collisions, or even natural meteoroids temporarily captured by Earth's gravity.

Not visible in the next 10 days
Identifier
49317, 2021-091C
Orbit
SSO
Country
Flag of CNCN / PRC
Related business
None
Manufacturer
Unknown
Mission
Non-operational Commercial Technology
Bus & Motor
Unknown
Mass
Unknown
Launch date (UTC)
2021-10-14 (4 years ago)
Launch vehicle
CHANG ZHENG 2D
Launch site
Taiyaun Space Center, China (TSC)
Object type
Unknown
Shape & HBR
Box, 0.3 m
Radar Cross Section
0.375 m², Medium (>0.1 m² and < 1m²)

Expand to show TLE details & history
Last TLE update: 6 hours ago

TLE from 6 hours ago
0 OBJECT C
1 49317U 21091C   25347.04034905  .00142416  00000-0  10757-2 0  9993
2 49317  97.3746 197.2742 0002690 286.1809  73.9158 15.72016381232526
Epoch: 2025-12-13T00:58Z
TLE epoch observation values (Epoch: 2025-12-13T00:58:06.157Z)
Latitude
-0.00006°
Longitude
100.77523°
Altitude
355.795 km
Speed
7.696 km/s
True Right ascension
13h 09m 05s
True Declination
0° 00' 00"
Sunlit
Object was in daylight at epoch
Visualization orbit readout
Latitude
Unknown
Longitude
Unknown
Altitude
Unknown
Speed
Unknown
Apparent Right ascension
Unknown
Apparent Declination
Unknown
Sunlit
N/A
Visualization observer readout
Local Sidereal Time
05:28:42
Azimuth
Unknown
Elevation
Unknown
Doppler factor
Unknown
Orbital elements
Apogee altitude
351.84 km
Perigee altitude
348.22 km
Semi-major axis
6,728.167 km
Eccentricity
0.00027
Inclination
97.3746°
RAAN
197.2742°
Arg. of periapsis
286.1809°
True anomaly
73.94542°
Mean anomaly
73.9158°
Eccentric anomaly
73.93061°
Mean motion
3.93276 °/min
Orbital period
91.54 mins
BSTAR
0.0010757
Loading maneuver chart data...
Computing Atmospheric mass density...
Loading historical data...
Loading historical data...
Loading historical data...
Loading historical data...
Loading historical data...
Loading historical data...
Loading historical data...

Documentation

Showing up to 5 results
|